CDT,Max TemperatureF,Mean TemperatureF,Min TemperatureF,Max Dew PointF,MeanDew PointF,Min DewpointF,Max Humidity, Mean Humidity, Min Humidity, Max Sea Level PressureIn, Mean Sea Level PressureIn, Min Sea Level PressureIn, Max VisibilityMiles, Mean VisibilityMiles, Min VisibilityMiles, Max Wind SpeedMPH, Mean Wind SpeedMPH, Max Gust SpeedMPH,PrecipitationIn, CloudCover, Events, WindDirDegrees
2011-10-1,82,67,53,38,34,30,47,31,18,30.22,30.14,30.09,10,10,9,12,8,,0.00,0,,88
2011-10-2,89,70,53,36,34,32,47,29,14,30.19,30.10,30.03,10,10,10,14,9,22,0.00,0,,121
2011-10-3,91,72,55,48,40,35,49,33,20,30.14,30.08,30.03,10,10,10,13,8,,0.00,0,,127
2011-10-4,88,72,55,44,40,38,59,33,17,30.14,30.06,30.00,10,10,10,14,8,24,0.00,0,,148
2011-10-5,84,70,57,55,45,37,75,46,30,30.04,29.97,29.88,10,10,10,18,10,22,0.01,2,Rain,128
2011-10-6,87,74,62,62,58,53,78,59,40,29.90,29.84,29.76,10,10,10,30,18,38,0.02,3,,142
2011-10-7,91,82,73,65,64,62,76,59,38,29.86,29.82,29.79,10,10,10,26,21,38,0.00,3,,146
2011-10-8,78,70,62,64,63,61,100,83,62,30.02,29.92,29.83,10,8,3,25,19,32,1.66,6,Rain-Thunderstorm,137
2011-10-9,70,63,57,61,59,55,100,89,68,30.06,30.01,29.93,10,10,6,22,8,31,0.33,6,Rain,73
2011-10-10,70,62,54,57,55,53,97,80,60,30.10,30.02,29.94,10,10,10,8,4,,0.01,2,,286
2011-10-11,79,66,55,63,60,53,96,73,54,29.91,29.79,29.71,10,10,8,17,8,23,0.04,1,Rain-Thunderstorm,157
2011-10-12,80,70,60,63,58,49,100,73,36,29.91,29.77,29.68,10,9,1,29,13,34,0.53,3,Rain-Thunderstorm,100
2011-10-13,78,66,55,51,44,37,70,50,24,30.01,29.94,29.87,10,10,10,13,9,16,0.00,0,,336
2011-10-14,86,70,55,56,50,47,80,55,26,29.91,29.86,29.78,10,10,10,20,9,25,0.00,0,,141
2011-10-15,86,70,57,56,53,49,78,57,29,30.03,29.95,29.91,10,10,10,13,9,,0.00,0,,141
2011-10-16,89,73,57,58,54,49,81,55,25,29.97,29.89,29.81,10,10,10,22,10,26,0.00,0,,193
2011-10-17,84,70,57,58,49,31,90,50,33,29.93,29.76,29.60,10,9,2,32,13,44,0.00,1,,325
2011-10-18,68,58,48,41,32,25,74,42,21,30.15,30.06,29.98,10,10,10,26,20,36,0.00,0,,343
2011-10-19,66,55,44,34,30,25,60,42,21,30.13,30.08,30.03,10,10,8,20,11,26,0.00,0,,346
2011-10-20,73,58,43,39,34,31,68,48,23,30.07,30.01,29.92,10,10,10,18,7,26,0.00,0,,133
2011-10-21,77,62,46,47,41,37,71,52,27,30.12,30.05,30.01,10,10,10,13,9,16,0.00,0,,68
2011-10-22,82,68,53,60,56,47,93,66,47,30.01,29.91,29.84,10,10,10,15,10,18,0.00,0,,133
2011-10-23,82,68,55,60,53,43,93,67,26,30.06,29.99,29.91,10,10,9,15,9,,0.00,0,,20
2011-10-24,86,69,52,53,47,38,89,61,18,30.14,30.06,29.99,10,10,10,20,6,25,0.00,0,,187
2011-10-25,90,73,57,57,55,50,84,55,29,29.97,29.84,29.73,10,10,10,24,13,34,0.00,0,,177
2011-10-26,72,64,57,55,46,39,78,53,40,29.94,29.86,29.73,10,10,10,25,15,30,0.00,2,,11
2011-10-27,53,48,44,44,42,38,93,87,57,30.17,30.09,29.95,10,8,3,30,20,39,0.66,8,Rain-Thunderstorm,360
2011-10-28,54,44,41,42,39,36,89,78,51,30.30,30.23,30.20,10,10,10,9,8,,0.00,3,,327
2011-10-29,64,58,52,40,39,38,63,52,41,30.21,30.10,29.98,10,10,10,17,14,,0.00,0,,178
2011-10-30,59,52,44,44,40,37,85,72,55,30.16,30.06,29.97,10,10,10,12,6,,0.00,0,,86
2011-10-31,69,58,46,50,44,39,80,68,42,30.16,30.09,29.97,10,10,9,10,4,,0.00,0,,159